Wind_Speed
21 21 21 20 20 20 21 21 20 19 19 19 18 18 17 17 16 16 17 16 14 15 14 13 13 14 14 13 11 13 14 14 12 11 10 11 10 9 9 7 7 8 9 8 6 8 9 9 9 9 10 11 11 10 9 8 7 8 7 5 5 4 3 2 3 5 7 8 8 8 7 8 9 12 13 10 11 12 10 9 10 12 14 12 10
21 21 21 21 21 20 21 21 20 19 19 19 19 18 17 17 16 15 17 18 16 15 15 14 14 14 15 14 12 13 15 14 12 11 10 10 9 8 9 9 7 8 9 9 7 8 9 9 9 11 11 11 11 12 10 7 8 8 7 5 4 4 4 3 4 5 5 7 7 6 8 8 9 11 12 11 12 12 11 10 8 10 13 12 11
22 23 22 21 21 21 20 20 21 20 19 19 19 19 17 16 16 16 16 15 15 15 15 15 14 14 14 15 14 14 15 14 13 12 10 9 9 9 9 9 8 9 9 9 9 9 8 9 10 11 10 10 12 13 10 9 9 9 9 8 5 5 6 5 5 4 4 5 5 7 10 10 10 11 12 12 12 12 13 11 10 11 13 15 14
16 21 24 22 20 21 21 20 20 21 20 19 19 19 18 17 16 16 15 15 14 14 14 14 14 14 14 13 13 13 13 13 12 11 9 8 9 9 9 8 8 7 7 8 8 7 8 10 10 12 11 11 12 13 11 12 12 10 10 10 7 7 7 5 4 4 3 3 5 8 10 9 11 13 13 13 13 14 14 14 15 15 14 15 16
11 14 22 23 21 20 20 20 20 21 21 20 20 19 18 18 17 16 16 16 15 14 14 14 15 16 14 12 11 10 11 9 9 9 9 7 8 9 8 8 7 5 5 5 5 7 8 8 10 11 11 12 12 12 12 12 12 10 10 11 9 8 7 6 6 5 3 4 6 7 10 11 13 15 15 13 13 14 14 16 17 15 13 14 15
18 15 17 21 23 21 20 20 21 21 21 20 19 19 19 18 17 18 17 16 15 15 15 14 14 14 13 11 11 10 10 9 9 10 9 7 7 7 6 7 6 5 3 3 4 3 5 7 6 7 8 8 9 10 10 10 10 10 9 10 10 8 7 6 5 4 3 4 7 9 13 15 14 14 15 15 16 16 15 15 17 14 12 15 19
21 20 16 17 21 21 20 20 19 20 22 21 20 19 19 18 17 17 17 15 15 14 13 14 12 11 11 9 8 9 10 10 9 10 10 8 7 6 6 5 5 5 2 2 2 5 5 3 2 4 5 7 8 8 9 9 9 9 9 9 10 11 9 8 6 3 4 9 11 12 14 16 16 16 16 17 18 19 17 15 15 14 12 15 20
21 21 19 17 19 20 21 21 19 18 18 20 22 20 18 19 19 17 16 16 15 14 13 13 13 11 11 9 6 7 9 9 7 8 9 8 7 6 5 3 3 2 1 2 2 1 4 4 4 5 7 9 8 7 7 7 8 9 10 9 9 10 9 9 5 5 13 15 15 15 16 18 18 17 19 20 20 20 18 14 14 14 12 13 17
20 18 16 17 18 18 20 21 20 19 16 16 21 21 17 16 17 17 17 16 15 16 14 12 12 11 11 10 9 9 9 9 9 9 8 6 3 3 4 3 2 1 1 1 2 6 6 6 7 7 7 9 10 10 10 9 9 9 9 8 8 10 11 9 9 15 19 17 15 15 17 18 19 18 19 20 19 18 18 16 16 15 12 12 13
19 18 17 18 17 16 18 20 20 20 17 13 16 19 16 13 10 10 14 14 12 13 12 11 12 10 9 12 12 10 9 10 11 11 9 6 3 1 3 3 2 1 2 3 5 8 9 10 10 9 9 12 14 14 15 14 13 12 12 13 14 16 19 19 17 18 19 17 15 15 15 15 17 18 17 17 17 18 18 17 16 15 13 11 9
15 12 9 10 13 16 19 20 20 21 19 13 11 14 14 11 8 6 8 10 9 10 10 10 8 4 8 13 13 11 9 10 9 8 6 5 3 1 1 2 3 4 5 7 10 11 12 12 10 10 12 14 15 16 17 18 19 18 16 15 14 16 18 19 18 18 18 18 16 15 14 13 14 15 15 15 16 17 18 17 17 17 15 12 8
8 6 7 8 12 18 20 21 21 21 20 14 10 9 10 9 9 7 8 9 9 9 10 9 6 7 10 12 13 11 9 8 6 4 3 3 3 5 7 8 9 9 10 12 14 13 13 13 13 13 12 12 13 15 17 19 21 22 21 20 19 18 19 20 20 19 20 19 17 16 15 13 14 14 15 15 15 16 17 17 18 18 16 15 10
5 10 15 15 16 19 22 23 21 20 20 17 12 10 10 9 9 9 10 11 10 10 11 10 7 10 12 13 13 11 9 7 5 5 5 7 9 12 13 12 13 13 13 14 14 14 14 14 16 16 14 13 15 17 18 18 19 21 23 24 24 22 23 24 23 23 23 22 22 20 17 16 16 16 16 15 15 16 18 18 19 18 18 16 13
6 10 15 16 18 19 21 23 22 20 19 16 11 9 10 11 12 12 11 9 9 8 8 8 9 13 15 15 14 11 9 8 8 8 11 13 15 16 15 14 14 14 14 14 14 15 16 17 19 19 18 18 19 20 21 22 23 24 25 25 25 24 24 24 24 24 24 24 25 23 20 20 20 18 17 16 16 16 17 17 18 19 19 15 12
8 13 16 19 20 18 19 21 20 17 14 14 12 10 12 15 17 14 10 8 9 9 8 8 11 15 17 17 15 13 10 10 11 13 15 16 16 15 15 16 16 16 16 16 16 18 19 20 20 19 18 19 20 22 24 25 26 27 28 27 26 25 24 23 22 22 22 22 22 21 21 22 23 22 20 19 19 18 15 16 18 18 18 17 14
12 14 16 19 18 16 16 16 16 13 9 12 16 14 13 15 15 13 11 11 12 14 16 16 15 17 17 16 14 13 12 13 15 16 15 14 14 16 18 19 19 19 18 18 18 19 19 19 19 18 18 18 18 18 19 19 21 22 23 24 24 24 24 22 22 22 22 21 20 20 20 21 22 23 22 21 21 20 18 19 21 21 19 19 18
11 13 13 14 13 14 13 11 13 12 6 9 14 14 14 13 10 10 14 16 16 19 22 20 19 18 18 15 14 14 15 15 16 16 15 14 16 19 22 23 22 21 20 20 20 19 18 18 19 20 20 18 16 14 13 14 15 16 17 17 17 18 19 18 19 20 20 20 20 19 19 20 20 20 21 20 20 21 22 22 22 20 18 16 16
9 11 12 10 9 11 11 10 10 10 5 7 13 16 16 13 9 13 20 20 19 22 23 21 19 18 17 16 16 18 18 16 16 18 17 16 18 23 25 25 24 23 23 23 23 21 20 19 20 21 19 17 15 14 14 15 16 16 16 15 14 14 13 13 14 15 15 17 17 17 17 18 17 17 19 20 20 21 23 22 19 19 17 15 15
6 7 5 5 6 9 10 7 3 3 4 8 13 16 17 14 13 20 25 21 19 21 20 19 18 16 17 19 20 21 21 18 17 19 18 17 19 23 26 27 27 26 26 26 25 24 23 21 20 19 17 14 13 14 14 16 16 16 16 16 16 16 14 12 12 12 13 14 14 14 15 16 16 16 18 20 21 20 21 20 18 19 17 15 16
5 6 6 6 5 5 5 4 2 4 8 12 14 16 16 16 17 22 24 20 19 21 21 21 21 21 21 22 21 22 22 19 16 17 18 19 20 24 27 29 29 28 28 28 27 25 23 21 18 16 15 14 14 15 16 17 18 18 18 17 16 15 14 13 13 13 14 14 14 15 15 15 15 16 17 19 21 20 19 19 18 17 16 15 16
9 8 8 9 10 11 9 7 7 9 10 13 16 17 18 19 20 23 24 23 24 25 25 26 27 25 23 23 22 21 21 20 18 18 20 22 23 26 28 28 28 28 27 27 27 25 23 21 18 15 14 14 15 16 17 17 19 20 20 19 17 15 14 14 14 13 14 14 14 15 15 15 16 16 16 17 19 20 18 18 17 17 16 16 16
13 13 13 15 16 16 16 15 14 13 12 13 16 18 18 20 21 22 23 26 28 28 28 29 29 28 25 24 24 22 21 21 21 22 23 24 25 26 26 25 25 27 28 27 26 25 23 22 19 16 16 18 19 19 19 19 19 19 18 17 16 15 15 14 14 14 14 14 15 15 16 15 15 17 16 16 19 21 19 17 17 17 15 14 14
14 14 14 15 15 14 14 13 14 14 13 14 17 17 17 20 23 24 26 29 30 29 28 29 30 28 25 24 25 24 23 23 22 22 23 24 24 25 25 25 25 28 29 28 28 26 25 23 21 20 19 21 21 21 21 21 20 19 17 16 16 15 16 16 16 16 15 15 15 15 15 15 15 16 16 15 16 19 20 17 16 16 15 14 13
14 14 14 14 14 13 12 13 14 14 14 15 17 17 18 21 24 26 28 30 31 29 27 27 28 27 24 23 24 25 24 23 22 21 22 23 23 24 26 26 27 28 29 29 27 26 25 24 23 22 22 23 22 22 21 20 20 19 18 17 18 18 18 17 17 16 15 15 15 15 14 15 15 14 14 14 14 16 19 18 16 16 16 14 13
14 14 14 14 14 14 14 14 14 15 16 17 19 20 21 22 23 25 27 27 27 26 24 24 24 24 22 22 25 26 25 24 24 23 23 24 24 25 27 27 27 28 29 28 27 26 25 24 24 24 24 24 23 22 22 22 21 20 19 19 19 19 19 18 16 16 16 15 15 15 13 13 14 12 11 12 11 13 17 18 17 17 17 16 15
15 15 15 16 16 16 16 15 15 14 15 17 18 20 21 21 22 23 23 23 23 22 22 22 22 21 20 21 24 27 26 26 26 26 25 25 24 25 26 26 26 28 28 27 26 25 25 24 24 24 23 22 21 20 20 20 20 19 18 17 17 17 18 18 17 16 15 14 13 13 12 11 12 11 11 11 11 12 16 17 17 17 17 17 15
16 16 16 16 17 17 17 17 17 16 17 17 18 20 21 20 20 19 18 19 20 20 20 20 20 20 20 20 22 22 22 23 25 26 25 25 24 25 26 28 27 27 27 26 25 24 23 22 21 21 21 21 19 17 16 16 17 17 17 17 16 15 15 16 15 14 13 12 12 12 11 11 12 12 12 13 12 14 16 16 16 17 17 16 16
18 18 16 16 17 17 17 18 17 17 16 16 16 17 18 18 16 15 15 18 20 20 20 20 20 20 21 21 20 19 18 19 21 22 23 26 28 28 28 27 26 25 26 25 23 21 20 20 19 20 19 17 16 16 15 15 15 15 15 16 16 15 13 13 13 13 12 11 12 12 12 13 13 13 13 14 13 14 16 15 15 17 17 16 16
19 20 20 19 17 17 17 17 17 18 17 17 17 16 17 16 14 14 15 18 19 19 20 21 21 21 21 20 20 20 19 18 18 20 23 28 29 27 24 21 20 21 22 22 20 19 18 18 16 15 13 12 12 13 13 14 15 14 14 14 15 14 14 13 13 13 12 12 13 13 12 13 13 12 12 13 13 14 15 15 16 17 17 16 16
19 20 21 20 17 16 15 16 18 19 19 20 21 21 18 16 15 14 14 15 16 16 17 20 23 23 23 21 19 20 21 21 21 23 25 26 24 20 18 17 18 20 20 19 17 15 13 12 11 9 7 7 9 9 9 10 12 13 14 15 14 14 14 14 14 13 11 11 12 12 11 12 13 12 12 14 14 14 15 16 16 17 17 16 16
17 16 18 19 18 17 17 17 17 17 17 21 24 25 24 21 17 15 13 13 15 15 15 19 23 24 24 23 21 21 22 24 25 25 23 21 18 16 16 17 19 19 17 13 8 7 8 8 8 8 8 10 11 11 11 11 12 12 12 13 14 13 13 13 13 12 11 11 12 12 12 12 13 12 12 13 14 14 14 15 16 17 17 17 17
13 13 17 20 21 20 18 17 16 16 17 19 21 22 25 25 23 19 17 17 19 18 18 20 23 23 23 24 24 25 25 24 23 21 19 17 16 16 17 17 16 15 11 4 1 3 8 9 8 8 10 12 13 13 12 12 12 12 11 11 12 12 11 12 12 11 10 11 12 12 11 12 13 12 12 13 14 14 14 15 15 16 16 17 17
17 17 18 20 20 19 18 17 17 16 16 16 16 17 19 21 22 23 23 23 24 23 23 23 23 23 23 24 25 27 25 22 20 18 17 16 17 18 18 16 12 9 4 2 3 7 10 9 8 10 13 13 13 12 11 11 12 12 11 11 12 11 9 10 12 12 10 10 12 11 10 12 13 12 12 12 12 13 13 14 15 15 15 16 16
17 16 18 19 19 19 18 18 18 16 16 16 15 15 16 18 20 20 21 23 24 25 26 26 25 25 25 26 26 26 23 20 18 18 17 17 19 19 18 13 9 6 4 3 2 6 8 11 14 15 14 14 13 10 9 9 11 11 10 10 11 9 8 9 12 12 9 9 11 11 10 10 12 12 11 11 11 12 12 14 14 15 16 16 15
15 16 17 18 19 19 18 18 18 18 17 17 16 16 16 17 17 17 17 18 20 23 25 27 27 27 27 27 26 23 20 18 17 17 18 19 19 18 15 11 8 6 5 6 6 8 12 16 17 15 13 13 11 7 6 8 10 10 9 8 8 8 7 8 10 11 9 9 11 10 9 9 10 11 10 11 12 13 13 14 14 14 15 15 14
15 15 15 16 17 18 17 17 17 17 17 17 17 17 17 16 15 16 17 18 19 21 24 27 27 26 25 24 23 21 19 18 18 18 19 19 19 18 14 10 8 7 7 8 10 12 14 14 12 11 10 8 5 4 6 8 9 8 7 5 5 6 6 6 8 9 9 8 9 9 9 9 9 10 10 11 12 12 12 13 13 13 13 13 13
14 14 14 15 17 18 17 16 16 16 17 17 18 18 18 17 16 17 17 18 18 22 25 27 27 26 24 22 21 20 19 19 19 20 20 21 21 17 9 5 6 9 10 8 7 9 11 10 8 7 6 4 2 5 9 10 9 6 5 4 4 5 5 5 7 8 8 7 8 8 8 8 8 9 10 11 11 11 11 12 12 12 12 13 12
13 14 14 15 17 17 17 16 16 16 16 17 17 17 17 17 17 17 18 18 19 21 22 23 23 23 24 22 20 20 21 20 20 20 20 20 19 13 3 1 6 11 11 8 7 9 10 9 7 5 4 3 4 7 9 9 8 6 5 3 5 7 6 6 8 8 7 6 7 6 6 7 9 9 10 11 10 10 10 11 11 12 12 12 12
13 14 15 16 16 15 15 16 16 16 16 15 15 15 16 17 17 18 18 18 18 19 19 19 18 18 21 23 22 20 20 19 17 17 18 17 16 10 2 1 7 11 11 9 9 8 8 8 8 5 3 4 7 8 7 5 5 5 5 4 5 6 5 5 7 7 5 5 6 5 5 6 8 9 11 10 9 9 10 10 10 11 12 12 12
14 15 16 15 13 14 15 15 15 14 15 15 14 15 15 15 16 17 18 17 18 18 18 18 17 17 20 23 24 22 19 16 14 15 15 14 13 9 5 4 8 13 12 11 10 9 8 8 7 4 2 3 6 6 4 2 2 3 4 3 4 4 4 5 6 5 4 4 5 6 5 5 5 6 9 8 8 8 9 10 10 10 12 12 13
14 15 15 13 12 14 14 13 13 13 14 14 14 14 14 14 15 17 17 17 17 17 17 17 18 20 21 23 24 23 19 15 14 14 13 13 13 11 9 8 10 11 12 13 11 10 10 10 7 4 4 6 6 4 3 2 1 2 3 4 4 4 4 5 5 3 2 3 4 5 5 5 5 4 7 7 8 8 9 10 10 11 12 12 13
15 15 15 13 12 13 13 13 13 13 13 13 13 14 14 15 15 16 17 17 17 17 16 16 18 21 23 24 25 24 18 14 14 15 14 13 12 11 10 12 12 10 11 13 12 10 11 9 5 6 6 8 5 2 2 3 2 2 3 4 5 4 3 3 4 3 2 2 3 3 4 5 6 4 6 7 8 8 9 10 10 11 12 13 14
16 16 15 13 13 13 13 13 13 13 13 13 13 13 14 15 15 16 17 18 18 17 16 16 18 22 24 24 26 25 19 14 13 14 14 14 13 12 11 15 15 12 12 13 12 10 9 5 4 5 9 9 6 3 3 3 2 2 3 4 5 4 3 2 3 2 2 2 3 3 3 4 6 5 7 8 7 8 9 10 11 12 12 13 13
16 16 15 14 13 13 13 14 14 14 13 13 13 13 14 14 13 15 18 19 19 18 17 17 20 24 24 24 27 27 21 14 11 13 14 14 14 14 13 14 14 13 13 14 12 9 6 6 6 9 10 8 5 4 3 3 3 3 3 4 5 4 3 3 3 2 2 2 3 4 4 3 5 6 8 8 7 8 9 10 10 11 12 12 13
15 15 15 14 14 13 14 15 15 15 16 15 13 13 14 13 12 13 15 18 20 20 18 18 22 26 26 26 28 30 26 17 11 13 15 15 14 13 13 14 14 14 14 14 12 8 6 8 8 11 9 6 5 5 4 4 5 4 4 5 5 5 4 4 2 2 2 2 2 3 3 3 5 6 7 7 7 8 8 9 10 10 11 12 12
15 15 15 14 14 14 15 16 16 17 19 19 16 15 16 16 15 15 15 16 18 19 18 19 23 25 26 28 28 28 26 20 15 14 16 16 14 14 14 15 17 16 14 13 12 8 6 6 6 8 6 6 6 6 5 5 5 5 6 6 6 6 6 4 2 2 2 1 3 3 2 3 5 5 5 5 6 7 8 8 9 10 11 11 12
14 15 16 16 15 15 15 16 16 16 17 18 19 19 20 19 19 18 17 16 17 17 17 21 24 22 23 26 26 24 24 22 19 17 17 16 14 14 15 17 18 16 14 13 12 9 7 6 5 6 7 8 7 6 6 6 6 7 7 7 7 6 6 5 4 3 3 2 1 2 1 3 5 5 5 6 6 7 7 8 9 10 11 11 12
13 14 15 16 17 17 16 16 16 16 16 16 17 19 21 22 22 21 20 18 18 16 17 21 24 22 21 23 24 22 22 22 20 17 17 16 15 15 18 19 17 15 14 13 12 11 10 9 7 8 8 8 7 7 7 7 8 8 8 7 5 2 3 6 6 5 6 6 3 0 3 4 4 4 5 6 6 7 8 8 8 10 10 11 12
14 14 15 15 16 17 18 17 17 17 16 16 16 17 18 19 20 21 21 20 19 18 17 18 22 22 21 22 23 23 22 21 18 16 17 16 15 16 20 20 16 15 16 15 13 12 12 11 9 8 8 7 8 8 7 8 9 8 8 7 3 4 3 7 8 5 6 8 5 1 3 3 2 3 4 5 6 7 8 8 8 9 10 10 11
15 15 15 16 16 16 17 18 18 18 17 18 17 18 19 19 18 20 22 22 20 19 18 17 19 21 21 21 22 23 22 21 18 17 17 16 16 16 19 19 16 14 16 17 15 13 11 11 11 10 9 9 10 9 8 10 11 9 7 6 4 7 6 4 6 5 6 7 6 2 3 4 3 2 3 4 5 6 7 7 7 8 10 10 10
18 17 16 16 16 17 17 17 18 18 19 19 19 18 19 20 19 18 20 20 20 21 20 18 18 19 21 21 21 20 20 19 18 17 17 17 17 17 19 19 18 15 14 14 14 14 14 13 12 12 12 11 10 9 11 13 12 10 7 4 6 8 6 2 3 4 4 6 6 4 3 5 3 2 3 4 4 5 6 6 7 9 10 10 10
Wind_Direction
195 196 199 198 199 198 198 201 202 204 205 204 207 208 208 210 208 202 204 209 205 202 206 209 208 208 207 206 205 207 208 211 214 216 219 224 231 243 255 256 249 257 271 275 288 304 300 292 294 304 312 318 322 314 308 323 325 325 342 333 295 287 288 247 247 282 301 317 339 348 344 358 8 8 17 20 15 24 28 15 13 13 16 36 52
197 195 198 200 202 201 199 201 202 207 208 206 209 210 210 212 210 206 206 205 203 202 205 208 209 210 208 206 207 208 207 208 210 211 216 223 223 231 246 255 264 270 268 269 284 293 290 295 309 323 326 319 309 299 299 323 330 327 338 327 304 324 328 298 277 280 304 330 349 359 352 6 18 13 20 19 11 24 32 28 32 24 29 50 48
200 195 197 200 204 203 202 202 201 207 211 211 212 212 212 211 210 213 213 206 206 206 204 208 210 210 210 209 206 208 210 210 208 207 214 221 217 221 237 253 274 281 272 271 283 288 300 326 335 322 308 298 297 302 311 321 315 313 331 342 345 328 302 277 281 291 306 329 354 9 2 12 25 24 30 29 23 30 32 34 47 40 44 53 41
197 192 196 201 206 206 205 205 203 206 211 214 215 214 213 212 208 213 217 213 210 207 204 209 211 211 215 214 204 198 203 206 205 207 213 220 226 233 244 255 262 261 260 274 291 317 342 342 321 301 298 305 305 307 316 321 320 326 340 346 338 304 285 280 299 300 296 329 4 13 9 26 45 38 33 32 33 38 37 43 52 48 49 50 38
216 195 193 199 208 209 207 208 208 208 210 213 216 216 215 213 208 211 217 216 211 206 206 213 215 212 212 216 213 196 189 196 205 210 210 210 226 240 249 256 257 245 253 287 335 2 348 315 304 308 311 313 314 317 326 332 336 344 346 336 321 302 298 312 314 297 305 354 14 26 31 46 53 43 36 35 36 36 38 46 51 51 53 46 34
228 215 196 198 208 212 211 210 211 211 212 215 217 217 218 216 211 210 213 215 214 210 210 212 216 216 211 213 218 200 182 186 198 198 190 186 208 239 251 250 248 240 249 11 27 340 278 270 311 343 333 325 332 335 335 338 344 350 346 330 321 314 312 319 322 310 327 30 49 53 48 47 46 42 41 43 41 36 35 42 45 48 57 48 33
228 219 205 202 206 210 214 217 217 213 211 216 220 220 220 220 218 214 209 212 216 216 216 215 214 216 213 212 219 209 196 198 203 200 194 191 204 231 243 240 244 240 251 6 307 275 274 267 343 22 17 3 355 349 346 348 354 359 354 337 327 321 314 307 311 334 73 78 71 62 53 49 46 41 38 41 43 36 30 36 40 41 51 49 35
223 214 207 207 208 209 214 221 227 224 217 215 220 225 222 220 223 220 211 210 214 216 222 221 213 210 213 208 197 191 191 190 190 198 208 214 220 232 234 240 254 246 3 327 265 349 30 53 74 56 33 22 19 20 14 7 13 17 8 353 337 330 324 310 307 89 92 81 70 63 56 50 44 38 36 37 34 26 23 31 33 31 38 41 32
209 206 204 208 211 212 213 216 223 231 232 224 222 228 231 227 227 222 216 216 214 213 219 227 224 214 201 187 173 167 174 178 178 182 193 203 217 251 260 269 257 218 74 22 81 76 79 91 78 57 47 54 61 61 51 40 39 40 41 45 46 52 60 59 69 84 83 74 67 62 55 47 37 33 35 33 27 23 28 34 31 27 29 29 24
205 204 203 204 206 210 209 208 212 221 232 235 227 226 229 236 241 224 215 217 214 208 210 222 233 222 179 164 166 170 172 172 173 178 183 181 171 288 286 265 227 154 101 106 102 101 111 106 83 70 78 80 75 71 68 66 67 71 75 77 77 81 86 86 80 78 75 69 63 56 54 48 35 31 33 28 24 24 26 28 25 19 15 16 15
213 211 216 209 209 213 212 209 210 214 223 234 232 223 223 234 250 231 207 203 201 199 196 201 215 196 154 162 169 171 171 168 172 182 188 192 186 75 50 159 151 128 116 121 122 116 110 101 91 91 96 93 85 81 80 79 78 80 82 85 88 89 89 86 79 75 73 69 62 56 55 48 35 31 28 22 20 20 21 20 15 9 3 356 349
213 224 243 234 226 225 223 221 218 216 218 222 219 214 218 230 242 238 214 200 198 197 190 184 165 126 133 155 161 160 166 169 177 184 164 158 145 111 111 119 114 107 111 116 117 112 106 104 103 102 103 100 94 92 90 84 80 79 80 81 84 86 88 86 81 79 78 74 67 59 54 48 39 31 26 22 21 22 22 17 10 8 1 352 359
175 224 234 232 231 229 226 225 223 219 217 215 207 204 212 226 246 252 233 212 205 200 191 183 160 130 130 145 151 149 153 159 162 157 132 122 120 116 116 116 106 101 103 106 108 109 112 114 111 106 106 104 100 100 98 91 86 83 80 78 77 77 80 83 83 82 82 80 75 66 58 53 47 38 32 30 28 25 20 14 12 11 4 3 34
149 216 228 227 227 226 225 223 219 217 215 212 206 196 200 213 232 248 247 222 203 197 185 171 150 133 131 142 146 139 139 147 144 134 128 126 124 117 112 108 103 100 100 102 107 111 114 115 111 107 106 105 104 103 100 97 93 88 83 81 79 76 76 78 80 80 78 77 75 69 63 58 53 48 44 40 38 33 22 16 18 13 7 17 53
192 214 224 225 221 217 222 222 214 207 204 204 204 195 190 200 209 218 226 216 203 196 176 153 139 133 135 142 139 129 130 139 135 131 134 138 133 121 113 108 105 102 100 100 105 109 111 110 108 107 106 104 103 101 99 96 92 85 81 79 77 75 74 73 76 78 78 76 74 69 63 58 53 49 47 45 45 45 35 27 28 23 20 27 32
204 220 231 235 227 217 220 222 215 209 194 187 196 202 204 205 205 200 191 185 187 181 168 157 150 146 148 147 138 128 130 138 137 132 135 142 134 120 114 112 108 105 103 102 104 108 109 108 107 109 110 107 102 99 96 91 86 83 83 82 78 75 73 69 67 69 72 72 71 67 60 54 49 45 42 42 41 39 38 34 30 27 26 23 16
191 210 222 231 227 216 214 216 218 222 202 167 184 204 214 211 207 198 185 172 164 162 157 154 154 154 152 149 143 135 132 136 140 135 135 139 131 122 120 118 113 110 109 110 112 111 109 110 111 112 112 111 108 104 99 94 90 90 92 91 88 86 82 75 65 62 63 63 61 61 56 50 47 41 38 41 40 35 35 33 25 21 22 19 10
189 210 223 231 227 215 213 216 222 230 219 166 181 198 205 201 187 181 180 169 154 151 148 145 147 149 147 143 140 135 130 133 139 139 139 140 134 129 126 122 117 113 112 114 116 114 112 115 117 116 116 117 117 113 108 102 98 95 93 92 90 85 82 77 67 59 58 56 53 54 54 51 48 40 35 40 44 38 36 33 25 21 21 19 8
171 187 192 202 206 204 205 211 223 218 179 168 178 188 191 186 170 168 174 169 149 142 140 136 132 130 131 133 133 131 128 130 137 141 142 143 139 135 130 124 119 115 112 112 112 111 112 114 116 118 118 119 119 120 118 109 99 93 90 87 81 75 71 71 70 65 63 59 54 53 55 53 50 44 36 36 40 38 35 31 28 25 21 16 10
138 147 136 137 144 153 177 194 162 118 134 150 165 175 179 176 162 160 168 165 145 136 137 133 124 119 122 124 126 128 128 127 135 141 141 141 139 133 127 122 118 114 112 110 109 108 110 111 112 114 114 110 108 109 110 105 97 92 87 80 78 77 72 68 67 67 67 63 57 55 55 51 48 44 37 32 32 33 30 27 26 25 19 12 8
97 106 109 105 100 101 108 115 113 115 128 145 153 156 161 163 156 152 154 148 134 127 127 126 121 118 120 121 120 123 125 125 130 134 132 130 129 124 120 118 117 115 112 111 110 109 109 107 106 107 105 102 99 98 99 98 95 90 82 75 75 79 77 70 66 64 65 63 57 53 52 49 43 40 36 31 26 25 25 23 21 20 16 7 2
85 88 91 90 89 92 94 93 97 107 120 131 135 137 144 148 145 139 136 130 124 120 118 116 114 113 115 118 119 121 122 124 127 127 125 124 123 121 119 119 120 118 114 112 112 111 110 107 105 105 104 101 99 97 95 93 90 87 83 80 79 76 72 70 66 63 63 61 57 52 49 45 39 34 33 30 23 21 21 20 18 16 12 6 1
94 94 94 92 90 92 95 96 99 109 116 119 122 126 132 136 134 128 123 119 117 114 112 110 110 109 109 113 118 121 123 125 125 124 124 125 125 124 123 123 124 121 117 115 114 112 111 108 106 105 104 101 100 99 96 92 88 84 82 83 82 76 72 69 65 64 62 58 55 52 46 42 36 30 30 28 20 16 17 18 17 14 10 6 3
109 105 101 100 99 98 101 104 109 116 118 114 116 121 125 128 128 127 124 120 117 115 113 111 109 108 107 109 115 121 124 125 125 126 125 125 124 124 124 124 123 121 117 116 115 112 110 108 105 102 98 95 94 92 89 87 84 78 74 73 71 69 67 64 61 59 58 54 50 47 43 40 34 27 28 27 16 10 14 17 16 14 11 10 12
110 107 103 102 101 100 102 104 108 114 116 115 119 125 128 127 126 125 123 120 117 116 115 114 112 111 111 111 114 119 122 123 123 123 123 122 123 125 125 125 124 121 117 115 114 111 110 107 104 99 94 90 87 84 80 77 75 71 67 65 63 61 59 57 56 54 52 50 45 40 38 36 29 24 24 24 17 13 14 14 14 13 12 12 18
108 106 104 103 104 104 104 105 108 111 114 117 123 129 129 126 125 124 122 120 120 119 119 118 117 116 118 119 117 118 119 119 120 122 123 124 125 127 127 125 122 118 115 114 114 112 110 107 103 99 95 91 88 87 83 80 75 69 64 62 60 59 57 54 52 49 47 46 42 35 32 28 23 23 27 26 26 26 21 14 12 13 9 4 12
106 104 104 106 108 108 109 111 114 114 115 118 123 126 127 126 124 124 122 122 124 126 125 124 123 124 127 128 124 122 120 119 122 124 125 126 127 126 125 122 119 117 116 116 116 114 111 109 106 104 102 99 94 90 88 85 80 73 69 65 59 56 55 53 51 49 46 45 41 34 30 27 23 23 27 26 26 30 26 17 12 13 7 3 12
115 113 112 110 110 110 110 110 111 111 110 114 119 123 126 128 129 129 129 131 132 134 133 131 131 134 137 137 134 132 130 129 129 129 129 130 129 127 125 122 120 120 120 120 121 121 122 123 123 123 124 119 111 106 103 99 89 78 72 67 60 54 50 49 50 48 43 43 41 32 29 29 25 23 24 23 23 28 26 19 16 14 9 10 19
121 120 121 119 117 118 114 111 111 111 108 107 108 113 124 134 138 139 143 145 146 147 144 139 137 140 142 143 143 140 138 139 140 139 137 135 132 128 127 126 126 127 128 130 133 134 137 141 145 150 153 143 126 118 114 108 98 86 77 69 61 54 47 41 40 40 37 39 39 31 28 28 23 19 23 21 19 24 24 21 21 18 13 16 21
124 124 128 127 124 121 118 114 114 114 112 109 106 106 117 131 137 140 146 150 152 154 150 143 142 145 145 145 146 145 143 144 144 141 137 134 131 129 130 135 139 141 140 137 137 144 155 159 157 155 147 121 103 95 88 86 84 81 79 73 62 54 45 36 33 33 30 35 38 31 27 28 20 17 24 23 18 21 24 24 24 20 15 17 17
141 135 131 128 126 125 124 121 118 115 113 112 108 104 103 106 112 123 136 144 146 147 144 141 144 147 147 144 143 143 142 141 140 138 136 136 138 139 140 144 146 145 144 143 152 176 172 143 121 111 98 87 83 78 74 71 64 59 65 68 63 56 44 31 28 27 26 34 38 30 27 29 20 15 25 26 20 22 25 24 24 21 17 18 14
132 113 108 111 118 124 126 124 123 121 119 116 112 107 102 97 96 102 117 134 141 139 137 140 146 149 148 146 142 139 138 138 138 139 139 141 144 145 146 147 147 148 152 152 19 120 122 108 99 101 95 86 79 71 67 69 66 56 54 61 64 60 47 31 27 28 29 35 36 29 28 30 20 14 25 29 23 23 25 23 23 24 21 18 13
115 110 109 112 118 123 127 128 129 130 130 127 121 115 110 104 99 97 103 116 128 131 133 139 144 145 146 146 143 140 141 142 142 143 144 143 144 146 147 146 144 146 149 43 60 125 136 125 107 98 94 92 88 77 67 68 69 62 56 59 64 62 52 36 29 28 32 40 38 29 29 30 20 13 23 30 26 23 24 24 23 23 22 17 11
117 120 121 122 125 128 132 135 136 137 139 138 133 125 119 118 115 108 103 105 111 116 123 130 137 140 142 143 143 143 144 143 142 145 146 145 147 150 147 140 131 120 92 59 122 154 133 96 80 76 78 83 84 77 72 78 78 69 60 61 62 58 52 42 31 24 25 40 42 30 25 30 25 14 17 29 28 24 25 25 21 20 21 16 9
117 122 125 128 131 132 134 136 137 139 141 142 139 134 128 126 123 117 112 109 106 107 114 123 131 136 139 140 142 145 145 142 143 146 147 147 151 151 143 135 131 123 95 76 83 91 83 76 71 69 71 76 76 68 69 85 87 77 64 60 59 55 53 48 34 21 18 38 44 30 18 29 27 13 16 30 29 22 24 23 17 18 21 13 4
121 125 128 131 132 132 133 134 136 137 138 138 138 137 136 135 129 122 117 115 113 115 118 122 127 132 136 138 141 143 144 144 145 147 148 150 152 150 147 150 153 132 100 81 74 77 81 80 76 77 81 81 85 92 85 86 92 86 72 69 64 53 51 54 41 24 22 39 42 25 17 27 25 15 22 34 28 18 20 19 14 16 18 10 5
134 136 137 137 134 133 133 134 135 135 134 134 136 138 138 135 131 128 124 121 121 124 126 127 128 130 132 136 140 144 146 147 149 150 152 155 158 157 156 168 161 133 113 104 92 89 93 94 93 107 119 118 116 101 86 84 89 85 77 96 92 66 63 74 55 33 27 38 36 22 19 24 17 15 30 37 25 15 17 18 14 10 9 7 9
143 145 141 134 131 132 134 136 136 135 135 137 139 139 138 136 134 131 128 127 129 131 132 133 134 134 135 139 145 149 150 151 153 157 160 164 168 169 158 93 139 130 120 122 122 112 114 122 127 135 139 114 90 85 80 81 86 77 66 81 84 70 68 71 54 36 30 35 26 16 24 23 11 19 39 37 18 11 16 19 16 9 3 3 7
136 137 134 129 129 133 137 140 140 140 142 146 146 142 139 140 140 137 134 136 139 140 141 142 142 142 145 149 152 154 154 154 158 164 168 173 178 180 193 167 144 133 126 132 134 127 134 142 134 128 119 85 79 81 80 77 80 80 72 64 61 56 56 60 50 34 30 38 20 9 36 36 13 25 46 36 8 5 15 17 15 11 2 358 360
133 133 132 134 137 139 142 146 149 150 151 153 153 149 148 149 146 142 144 149 151 151 153 155 153 153 157 160 160 160 159 161 166 170 174 182 188 192 209 199 155 141 142 150 152 155 161 146 125 123 157 102 87 89 91 76 66 87 91 79 64 53 53 68 66 38 27 41 15 358 35 49 17 29 50 32 356 2 17 13 13 11 1 356 359
144 143 144 149 148 146 151 159 160 158 160 162 160 158 158 158 152 147 151 156 157 157 163 165 162 164 169 172 170 166 164 168 174 176 181 189 193 198 206 194 167 155 158 162 166 171 161 139 131 175 176 125 103 105 122 117 83 69 90 94 86 68 56 73 77 51 31 52 20 358 27 34 359 20 59 31 353 2 16 8 9 10 0 356 360
153 153 157 163 160 156 163 170 167 165 169 170 168 166 166 165 163 161 162 161 159 164 172 172 166 170 179 183 178 173 172 177 181 181 184 190 196 206 201 182 173 172 168 162 160 156 143 136 166 202 161 120 105 124 143 127 92 48 79 101 95 73 57 73 79 62 41 48 7 353 32 20 342 357 68 47 3 1 11 8 9 8 1 360 2
156 160 166 171 170 168 171 172 170 172 173 174 175 173 170 173 177 174 167 163 164 171 177 173 168 173 183 188 184 180 179 185 190 188 186 190 203 211 195 174 171 174 167 158 151 141 136 152 196 169 129 113 109 108 102 110 113 74 77 102 106 91 72 80 85 64 34 19 353 358 40 22 338 355 48 45 11 0 8 11 10 6 2 3 0
157 163 169 175 177 178 177 173 172 173 176 179 179 173 172 182 188 179 170 168 172 178 182 177 172 177 184 189 189 188 189 193 198 197 195 200 206 204 189 176 171 165 159 157 151 143 165 207 185 135 118 117 124 116 94 97 111 104 90 101 112 115 108 99 88 66 43 18 359 6 22 360 340 5 30 25 8 6 9 9 8 4 1 360 353
165 167 172 178 182 183 181 179 180 181 182 184 183 176 178 189 195 188 182 179 178 184 192 184 175 179 186 190 192 195 197 200 201 200 204 209 207 197 189 183 173 159 154 157 154 154 195 208 164 124 115 126 138 142 140 122 114 116 116 110 106 110 115 114 104 90 82 41 2 15 19 339 344 15 24 7 1 10 8 1 2 2 357 352 346
177 173 175 181 186 188 187 187 188 188 187 187 185 182 185 190 193 197 202 194 184 188 192 180 170 175 184 189 193 198 201 203 206 205 204 207 207 200 190 177 164 157 159 163 162 170 201 194 145 120 131 150 150 151 158 148 132 126 119 114 116 125 129 126 112 109 114 57 6 14 9 333 339 5 20 5 358 3 2 357 358 358 353 347 342
190 183 181 183 188 193 194 194 195 197 197 194 190 187 188 190 191 197 204 200 192 190 184 171 167 172 179 184 190 196 199 204 211 209 201 201 205 198 181 165 159 162 166 164 163 176 196 190 158 150 162 163 157 158 161 154 146 140 137 144 157 163 157 147 138 153 183 181 77 38 332 322 337 353 12 8 356 351 356 360 357 352 349 344 337
201 199 195 190 188 193 196 196 198 204 206 204 200 197 194 192 192 196 200 197 192 191 184 172 169 172 177 183 188 192 198 207 212 204 194 197 199 184 166 160 162 171 175 172 170 175 183 184 177 168 164 162 164 169 166 155 153 159 171 180 182 198 216 201 193 197 200 186 159 14 294 300 339 2 5 360 350 346 355 0 354 348 344 337 331
203 206 206 200 195 195 195 195 199 205 206 205 206 208 208 205 199 194 191 188 187 192 193 183 174 172 177 183 186 190 200 209 206 191 188 196 195 176 165 166 172 177 181 180 173 165 165 172 176 172 170 171 173 173 168 163 169 187 205 209 225 343 307 231 224 224 203 190 185 294 320 315 359 16 359 346 347 352 355 355 350 343 333 325 326
207 209 209 206 203 202 198 196 199 203 204 205 205 206 211 219 215 196 184 182 184 188 196 199 189 180 178 184 188 193 202 207 198 185 185 194 195 185 179 179 179 175 174 174 169 161 163 172 176 179 184 184 182 184 183 179 186 204 218 226 284 332 331 257 231 226 207 200 194 145 41 8 3 15 354 342 348 354 349 343 338 330 321 320 331
208 211 211 208 206 206 203 201 201 200 201 206 209 205 206 217 223 210 191 186 184 183 190 205 206 191 185 191 195 195 197 198 192 186 188 194 196 188 178 172 172 171 169 168 168 169 172 177 181 188 194 192 186 188 189 186 192 209 225 255 308 327 333 288 223 212 203 206 197 164 51 8 358 10 352 344 347 344 336 330 326 321 321 330 346
Height
784 786 787 788 789 791 792 794 795 796 797 799 800 801 802 803 804 806 807 808 809 811 812 812 813 814 815 816 817 817 819 819 820 821 822 823 823 823 824 824 825 826 827 827 827 828 829 829 830 831 832 832 831 830 828 828 828 827 826 826 825 826 826 826 827 826 825 826 826 825 824 824 823 822 822 821 821 820 819 819 819 818 818 817 817
781 783 785 787 788 788 790 792 793 795 796 797 798 799 800 801 803 804 805 807 809 810 811 812 813 814 814 815 815 816 817 818 819 820 821 822 822 822 823 823 825 825 825 826 826 827 828 829 830 832 832 831 830 828 827 827 827 826 825 825 826 827 827 827 826 825 825 825 825 824 824 824 823 823 822 821 821 820 819 819 819 819 819 818 818
779 781 783 785 786 787 788 789 791 793 794 795 796 797 798 799 801 803 804 805 807 809 810 811 812 812 813 814 814 815 816 817 818 819 820 821 821 822 822 822 824 825 825 825 826 826 828 831 833 832 830 829 829 829 828 827 826 825 826 826 827 827 826 825 824 824 824 824 824 824 823 823 823 822 822 822 821 820 819 819 819 819 819 819 819
777 779 780 783 784 785 786 787 789 790 791 793 794 795 796 797 799 802 803 804 805 807 809 810 811 811 812 813 813 814 815 816 817 819 819 820 821 821 822 822 823 824 825 826 826 828 831 833 832 830 829 829 829 828 828 827 826 826 827 827 826 824 823 823 823 824 824 824 824 824 823 822 822 822 821 821 821 820 819 819 818 818 819 819 819
777 778 779 780 782 783 784 785 786 788 789 790 791 793 794 795 797 800 801 802 803 806 807 809 810 810 811 812 812 814 815 815 817 819 819 820 820 820 821 821 823 824 825 826 827 830 832 831 828 827 828 828 828 828 828 827 827 827 827 826 825 824 823 823 824 825 825 824 824 823 823 822 822 822 821 821 821 820 820 819 819 819 820 820 820
776 777 778 778 780 781 782 783 784 785 787 788 790 791 793 794 796 797 799 800 802 804 805 807 808 809 809 810 812 813 813 814 816 818 818 819 819 820 820 821 822 823 825 826 827 827 826 825 826 826 826 826 827 827 828 828 828 827 827 825 824 824 824 824 825 825 825 825 824 824 823 823 823 822 822 821 821 820 820 820 820 820 820 820 820
774 775 776 777 778 779 780 781 782 783 785 787 789 790 792 793 794 795 797 799 801 802 803 805 806 807 808 810 811 812 812 813 815 816 817 818 819 819 820 821 822 823 825 825 825 824 823 824 825 825 825 825 826 827 827 828 828 827 826 825 824 824 824 824 824 824 824 824 825 825 825 824 824 824 823 822 821 821 821 821 821 821 821 821 821
774 774 774 775 776 777 778 780 781 782 784 786 787 789 790 792 793 794 796 798 799 801 802 803 804 806 808 809 810 811 812 813 814 815 816 817 818 819 820 821 821 823 824 824 823 824 825 825 825 826 826 826 826 826 827 828 828 827 826 825 824 823 822 822 823 823 823 824 826 826 826 826 826 825 824 823 822 822 823 823 823 823 822 822 821
773 772 772 773 774 776 777 779 780 781 782 784 786 787 789 791 792 793 795 796 798 799 801 802 803 804 806 807 808 810 811 812 812 814 815 816 817 818 819 820 820 821 822 822 823 824 825 825 825 826 826 826 827 828 828 828 828 827 826 825 824 823 822 822 823 823 823 825 826 827 827 827 827 827 826 825 825 826 825 825 824 824 824 823 822
769 770 770 771 773 774 775 777 778 780 781 783 784 786 788 790 791 792 794 795 797 798 800 801 802 803 804 804 807 809 810 811 812 814 815 815 817 818 818 818 819 819 820 822 823 824 825 825 825 826 826 827 828 829 829 829 828 827 827 826 825 824 823 823 824 825 825 826 828 828 829 829 830 829 829 829 829 829 827 826 826 825 825 824 823
767 768 769 771 773 773 774 775 776 778 779 781 783 785 787 789 791 793 793 795 796 797 799 800 801 801 802 803 805 807 809 811 812 813 814 815 816 817 817 818 819 820 821 822 823 824 825 825 825 826 827 828 829 830 829 829 829 828 828 827 826 826 825 825 826 826 827 828 830 831 831 832 832 831 831 831 830 830 829 828 828 827 826 825 824
766 769 770 772 773 773 774 774 775 777 778 780 782 784 787 790 792 794 794 795 796 797 798 800 800 800 802 803 805 806 808 810 811 812 813 814 815 816 817 818 819 820 822 822 823 824 825 825 826 828 829 829 830 830 830 831 830 830 830 828 828 828 827 827 827 828 829 830 831 832 833 833 834 833 833 833 832 831 830 830 829 828 827 826 825
767 770 770 771 772 772 773 773 774 776 777 779 781 783 786 790 793 796 797 796 797 798 798 800 801 801 802 803 804 805 808 810 811 811 812 813 815 815 816 817 818 820 821 822 823 824 824 826 827 828 830 830 830 830 831 831 832 831 831 831 830 830 830 829 830 830 831 831 832 833 834 835 835 835 835 834 833 833 832 831 831 829 829 828 827
768 769 769 769 770 770 771 771 773 774 775 778 781 784 786 788 792 797 798 796 797 798 799 801 801 802 803 804 805 806 808 809 810 811 812 813 814 814 816 817 818 820 821 822 823 824 825 826 827 829 831 831 831 832 832 832 833 833 833 832 833 833 833 833 833 833 833 833 833 835 836 837 837 837 836 835 834 834 834 833 832 831 830 829 829
768 768 766 765 766 768 768 769 771 772 773 777 781 784 784 785 788 793 796 797 797 798 800 802 802 802 803 804 805 807 808 809 810 811 812 812 813 814 815 817 819 821 822 822 823 824 825 827 828 830 831 832 833 833 834 834 834 835 835 835 835 835 835 835 835 835 835 835 836 837 838 838 838 838 837 836 835 835 835 835 834 832 831 830 830
766 766 764 763 764 766 767 768 770 771 772 775 779 782 782 783 785 789 793 796 796 796 798 800 800 801 802 803 804 806 808 809 810 812 813 812 812 813 816 818 820 821 823 824 825 826 827 828 829 831 832 834 835 835 836 836 836 836 836 837 837 837 837 838 838 838 838 838 838 839 839 839 839 839 838 837 836 836 836 835 833 832 831 830 830
765 764 763 763 764 766 766 767 769 770 772 774 778 780 781 783 785 788 791 793 793 794 795 795 798 799 800 801 803 804 807 809 810 812 813 813 813 814 815 817 820 822 824 825 826 827 829 829 830 832 834 835 836 837 838 838 837 838 838 838 839 839 839 840 840 840 840 840 840 840 840 840 841 840 840 839 838 837 836 834 834 834 833 832 832
763 762 762 763 765 766 766 767 768 769 771 773 777 779 780 783 785 787 790 791 791 792 792 794 797 798 798 800 802 803 806 809 810 811 812 813 815 815 815 816 820 823 825 826 828 828 830 831 832 833 835 836 837 838 839 839 839 839 839 839 840 840 840 841 841 841 841 841 841 842 842 842 842 842 841 840 840 839 837 837 837 836 835 835 834
761 761 762 763 765 766 766 767 768 769 770 772 775 777 778 781 784 785 787 789 789 790 792 794 797 799 799 800 801 803 806 809 811 811 812 814 816 816 816 816 820 823 826 827 829 830 831 833 834 835 836 837 838 838 839 840 840 840 841 841 841 842 842 843 843 843 843 843 843 843 844 844 844 844 843 842 841 841 840 839 839 838 837 837 837
761 762 763 763 766 767 767 768 769 769 770 772 774 776 777 779 782 783 785 788 789 790 792 794 797 800 802 803 803 804 805 809 812 812 812 814 816 817 817 817 820 824 826 828 830 831 833 835 836 837 837 838 838 839 839 840 840 841 841 842 842 843 844 844 844 844 845 845 845 845 845 845 845 844 844 843 842 842 841 841 840 840 839 839 838
763 764 765 765 767 768 768 770 770 770 772 772 773 775 776 778 781 782 784 787 789 791 793 795 797 800 803 804 806 807 807 809 813 814 814 816 818 819 819 820 822 825 827 829 831 832 834 836 837 838 838 839 839 839 840 841 841 842 843 843 844 845 845 845 846 846 846 846 846 846 846 846 846 845 845 845 844 843 843 842 842 841 841 840 839
765 766 767 767 769 770 771 772 773 773 774 775 775 777 778 779 781 782 784 786 788 791 794 796 797 801 804 805 808 810 810 812 814 816 816 817 819 820 820 822 824 826 827 830 832 834 835 837 838 839 839 840 840 841 842 843 843 844 845 845 846 846 846 847 847 847 847 847 847 847 847 847 847 846 846 846 845 844 844 843 843 843 842 842 841
767 768 769 770 771 773 774 774 775 776 777 777 778 779 780 781 782 784 786 787 789 792 795 797 799 802 805 808 810 812 813 814 816 817 818 819 820 821 822 824 826 827 828 830 833 835 836 837 838 840 841 841 842 843 844 844 845 846 846 846 846 847 847 847 848 848 848 848 848 848 848 848 848 847 847 847 847 846 845 845 844 844 843 842 841
769 770 772 773 774 775 776 776 777 778 779 780 781 782 784 784 785 787 789 789 791 794 797 799 801 803 807 810 812 813 815 816 817 819 819 820 822 823 824 826 828 829 830 832 834 836 837 838 839 841 842 843 844 845 846 846 847 847 847 848 848 848 848 849 849 849 849 849 849 849 849 849 849 849 849 849 849 848 847 846 845 845 843 842 841
771 772 773 774 775 777 778 779 780 781 781 783 783 785 787 788 788 790 791 792 793 796 799 801 803 805 809 812 813 815 816 817 819 820 821 822 824 825 826 828 829 831 832 833 836 837 838 840 841 842 843 845 846 846 847 848 848 849 849 849 849 850 850 850 850 850 850 850 851 851 851 851 851 851 850 850 850 849 849 847 846 845 844 843 842
774 774 775 776 777 779 780 782 783 785 785 786 787 788 790 791 792 793 794 795 797 798 801 803 805 808 811 813 815 817 818 819 820 822 823 825 826 827 828 830 832 833 834 835 837 838 840 841 842 843 844 845 846 847 848 849 850 850 851 851 851 851 852 852 852 852 852 852 853 853 853 852 852 852 851 851 850 850 849 848 847 846 845 844 843
776 777 777 778 779 781 782 784 785 787 789 790 791 792 793 794 796 796 797 798 799 801 803 805 806 809 812 815 817 818 820 821 822 824 825 826 828 830 831 832 834 835 835 837 839 839 841 842 843 844 845 846 847 848 849 850 851 852 852 852 853 853 853 853 853 853 854 854 854 854 854 853 853 852 852 852 851 850 850 849 848 847 846 845 844
775 777 778 780 782 783 784 785 787 789 790 791 793 794 796 797 798 798 799 800 801 802 804 805 808 810 813 815 817 819 821 823 824 825 826 827 829 831 833 834 836 836 837 838 839 840 842 842 843 845 845 846 847 848 850 851 852 852 853 853 854 854 855 855 855 855 855 855 855 855 854 854 853 853 852 852 852 851 850 850 849 848 847 846 845
774 774 775 778 781 784 786 787 788 790 791 792 793 795 796 798 799 799 800 801 802 803 804 806 808 811 813 815 816 818 820 823 824 826 827 828 830 832 834 835 836 837 838 839 840 841 842 843 844 845 846 846 848 849 850 851 852 853 854 854 855 856 856 856 856 856 856 856 855 855 855 854 854 854 853 853 853 852 851 851 850 849 848 847 846
775 775 775 776 779 783 787 789 790 792 793 794 794 796 797 799 800 800 801 802 803 804 805 806 808 810 813 815 817 818 820 822 824 826 828 830 832 833 835 836 837 838 839 840 841 842 843 844 845 846 846 847 848 849 851 852 852 853 854 855 856 857 857 857 857 857 857 857 856 856 856 855 855 854 854 854 853 852 852 851 851 850 849 848 848
776 776 776 776 778 783 787 790 792 794 795 795 796 797 798 800 801 802 802 803 804 805 806 807 809 811 813 815 817 820 822 823 825 827 829 831 833 835 836 837 838 839 841 841 842 843 843 844 845 846 846 847 849 850 852 853 854 855 855 856 857 858 858 859 858 858 858 857 857 857 857 856 856 855 855 854 854 853 853 852 852 851 850 850 849
776 777 777 777 779 783 787 790 792 794 796 797 797 798 799 800 802 803 804 804 804 806 807 809 811 813 815 816 818 821 823 825 827 829 830 832 834 835 837 838 839 840 841 842 842 843 844 845 845 846 847 849 850 852 853 854 855 856 857 857 858 859 860 860 859 859 859 858 858 859 858 857 857 856 855 855 854 854 854 853 853 853 852 852 851
777 778 779 779 781 784 787 789 792 794 795 797 798 799 800 802 803 805 806 805 806 807 809 811 813 815 817 819 820 822 825 827 828 830 832 833 835 836 837 839 840 841 842 842 843 843 844 845 846 847 848 850 851 853 854 855 856 857 858 859 859 860 861 861 860 860 860 860 860 859 859 858 858 856 856 856 856 856 855 855 855 854 854 853 853
778 779 781 782 783 785 787 789 791 793 795 797 798 799 801 802 804 805 806 807 809 810 812 813 815 817 819 820 822 824 826 828 830 831 833 834 835 837 838 840 841 842 843 843 843 844 845 845 846 848 849 851 853 854 856 856 857 858 859 860 860 861 862 862 861 861 861 860 860 860 859 859 859 858 858 857 857 857 857 856 856 856 855 855 854
780 782 783 784 785 786 788 790 791 793 794 796 798 799 801 803 804 806 807 808 810 813 814 816 818 819 821 822 824 826 828 829 831 833 834 835 837 838 839 841 841 842 843 843 844 844 845 846 847 849 851 852 854 856 856 857 857 859 860 861 861 862 862 862 862 862 861 861 861 861 861 861 860 860 859 859 858 859 858 858 858 857 856 856 855
782 784 785 786 786 787 789 790 792 793 794 796 797 799 801 803 804 806 808 810 812 814 816 818 820 822 823 824 826 827 829 831 832 834 835 836 838 839 840 841 842 843 843 844 845 845 846 848 849 851 853 854 856 856 857 857 858 859 860 861 862 862 862 862 863 862 862 862 862 862 862 862 862 861 860 860 860 860 859 859 859 858 858 857 856
783 784 785 786 787 788 790 791 793 794 794 796 797 799 801 803 804 806 809 811 813 815 817 819 821 822 824 825 827 829 830 832 833 835 836 837 838 840 841 841 842 843 844 845 847 847 849 850 852 853 855 856 856 856 856 857 858 859 860 861 861 861 862 862 863 863 863 863 863 863 863 863 863 862 862 862 862 861 861 860 860 860 859 858 857
783 783 785 786 787 789 791 792 793 794 795 796 798 799 800 802 804 806 809 812 814 816 818 820 821 823 824 826 828 830 831 833 835 836 837 838 839 840 841 841 842 843 844 846 848 849 850 852 854 855 856 856 856 856 857 858 859 859 860 860 861 861 862 862 863 863 864 864 864 864 864 864 864 863 862 863 863 862 862 861 861 861 860 859 858
782 783 785 786 787 789 791 792 793 794 795 796 798 799 800 802 804 806 809 812 814 816 818 820 822 823 824 826 828 830 832 833 835 836 837 838 839 840 840 841 842 843 845 847 849 850 852 853 854 855 856 856 856 856 857 858 859 859 860 860 861 862 862 863 863 864 864 865 865 865 865 865 865 864 863 864 864 863 862 862 862 861 860 859 858
781 783 785 786 788 789 790 792 793 794 795 796 798 799 800 802 804 806 809 811 814 816 818 819 821 823 825 826 827 829 831 832 834 835 837 838 839 840 840 841 842 843 845 847 849 850 852 853 853 855 856 856 856 857 858 858 859 859 859 860 861 862 862 863 863 864 865 865 865 865 865 865 865 864 864 864 864 863 863 862 862 861 861 860 858
781 783 785 786 788 789 790 791 793 793 794 796 797 798 800 802 803 806 808 810 813 815 817 818 820 821 823 825 826 828 829 831 833 834 836 837 838 839 840 841 842 843 845 847 848 850 851 852 853 854 855 855 856 857 858 858 858 859 859 860 861 862 862 863 864 864 865 865 866 866 865 865 865 864 864 864 864 863 863 862 862 861 861 860 859
781 783 784 786 787 788 790 791 792 793 794 795 796 798 800 801 803 805 807 809 811 813 815 817 818 819 821 824 825 827 829 831 832 834 835 836 838 838 840 841 842 843 845 846 847 849 850 851 853 853 854 854 855 857 857 858 858 859 859 860 861 862 863 863 864 865 865 865 866 865 865 865 864 863 863 864 864 864 863 862 862 861 861 860 859
780 782 784 785 786 787 789 790 791 793 794 795 796 798 799 800 802 804 805 807 810 812 813 815 816 818 820 823 825 827 829 830 832 833 834 835 837 837 838 840 841 842 844 845 846 848 850 851 852 852 852 853 855 857 858 858 858 859 860 860 861 862 863 864 864 865 865 865 865 865 865 865 864 863 863 863 864 864 863 862 862 862 861 860 859
780 781 783 785 785 787 788 789 791 792 793 794 796 797 798 800 801 802 803 806 808 810 811 813 814 816 819 822 824 826 828 829 831 832 833 834 836 836 837 839 840 841 842 844 845 847 849 850 851 851 851 853 855 857 858 858 859 860 860 861 861 862 863 864 864 865 865 865 865 865 865 865 864 863 863 863 864 863 863 863 862 862 861 860 859
779 781 782 784 785 786 787 788 790 791 792 794 795 796 798 799 800 801 803 804 806 807 809 811 812 814 817 820 822 825 826 828 830 831 832 833 834 835 836 837 838 839 841 843 844 846 848 850 850 850 851 853 856 857 858 859 859 860 860 861 862 863 863 864 864 864 864 865 865 865 865 864 864 863 863 864 864 863 863 863 863 862 861 860 859
777 779 781 782 784 785 786 787 789 790 791 792 794 795 797 798 799 800 801 802 804 806 807 808 810 813 815 818 820 823 824 827 828 829 830 832 833 834 834 835 837 838 841 842 844 846 848 848 848 849 852 854 856 857 858 859 859 860 861 861 862 862 863 863 864 864 864 864 864 865 865 864 864 864 864 864 864 863 863 863 862 862 861 860 859
775 777 779 780 782 783 784 785 787 788 789 790 791 793 794 796 797 798 800 800 802 804 805 807 809 812 814 816 818 821 823 825 826 827 828 830 831 832 833 833 835 838 840 841 843 845 847 848 849 850 852 854 855 857 858 859 860 860 860 861 861 862 862 863 863 864 864 864 864 864 865 864 864 864 863 864 864 863 863 863 862 862 861 860 858
774 775 776 777 779 781 782 783 785 786 787 788 789 790 792 793 794 796 797 799 800 802 804 806 808 810 812 814 817 819 821 823 824 825 826 828 829 830 831 832 835 837 838 840 842 844 845 847 849 851 852 853 855 857 858 859 859 859 860 860 861 862 862 862 862 863 863 863 863 863 864 864 864 863 863 864 864 863 863 862 862 862 861 859 858
772 773 773 774 776 778 779 781 782 784 785 786 787 788 789 790 791 792 794 796 798 800 802 804 806 808 810 812 814 816 818 820 821 822 824 826 828 829 830 831 834 836 837 839 841 842 844 847 849 850 852 854 855 857 858 858 858 858 859 860 861 861 861 862 862 862 862 863 862 863 863 863 863 863 863 864 863 863 863 863 862 861 860 859 857
770 771 771 772 774 775 776 778 779 781 782 784 785 786 787 788 788 789 791 793 795 797 799 802 804 805 808 810 812 814 816 817 819 820 822 825 827 827 828 830 833 834 836 838 839 841 843 846 848 850 852 853 854 856 857 857 857 858 859 860 861 860 860 861 861 861 862 862 862 863 863 862 863 863 863 863 863 863 863 862 862 861 859 858 856
767 768 769 770 771 772 774 775 776 778 779 781 782 783 784 785 786 786 788 790 792 794 797 799 801 803 805 807 810 811 813 815 817 819 821 823 825 826 827 829 831 833 835 837 838 840 843 846 847 849 851 852 853 854 855 855 856 858 859 860 860 859 859 860 860 861 861 862 862 863 862 862 863 863 863 863 863 863 862 862 861 860 859 857 856